Location: Burbank
(38.7788°N, 114.0429°W)
Time: 22:21:27
(UTC+00:00)

Transit 2A - Pass Details

Date: 12 May 2026
Orbit: 595 x 949 km, 66.7° (Epoch: 5 June)

Event Time Altitude Azimuth Distance (km) Brightness Sun altitude
Rises 00:21:33 0° 220° (SW) 3,600 10.0 24.9°
Reaches altitude 10° 00:24:11 10° 224° (SW) 2,646 9.5 24.4°
Maximum altitude 00:30:16 55° 302° (WNW) 1,080 7.8 23.2°
Drops below altitude 10° 00:36:01 10° 20° (NNE) 2,504 8.6 22.1°
Sets 00:38:28 0° 25° (NNE) 3,393 9.2 21.6°
